VE3MJM-WX Weather Reports


Display with metric or nautical units.
time (UTC)temp
F
wind
direction
speed
MPH
gust
MPH
rain 1hr
in
rain 24hr
in
rain mn
in
humidity
%
barometer
mb
20260503180009 57 274 5.0 17.0 0.00 0.00 0.00 42 1003.4
20260503174507 59 277 6.0 23.0 0.00 0.00 0.00 41 1003.3
20260503173004 60 214 5.0 17.0 0.00 0.00 0.00 40 1003.5
20260503171501 59 90 5.0 15.0 0.00 0.00 0.00 40 1003.7
20260503081332 31 0 0.0 0.0 0.00 0.00 0.00 85 1009.3
20260503072822 29 0 0.0 0.0 0.00 0.00 0.00 88 1009.3
20260503071319 29 0 0.0 0.0 0.00 0.00 0.00 88 1009.3
20260503054334 28 0 0.0 0.0 0.00 0.00 0.00 91 1010.4
20260503052834 28 0 0.0 0.0 0.00 0.00 0.00 87 1010.4
20260503051331 27 0 0.0 0.0 0.00 0.00 0.00 86 1010.7
20260503045827 27 0 0.0 0.0 0.00 0.00 0.00 90 1010.8
20260503044324 27 0 0.0 0.0 0.00 0.00 0.00 92 1011.0
20260503042821 27 0 0.0 0.0 0.00 0.00 0.00 90 1011.0
20260503041319 28 0 0.0 0.0 0.00 0.00 0.00 87 1010.9
20260503035819 28 0 0.0 0.0 0.00 0.00 0.00 88 1011.0
20260503034314 28 0 0.0 0.0 0.00 0.00 0.00 87 1011.1
20260503032813 28 0 0.0 0.0 0.00 0.00 0.00 87 1011.2
20260503031311 29 0 0.0 0.0 0.00 0.00 0.00 84 1011.3
20260503025808 29 0 0.0 0.0 0.00 0.00 0.00 82 1011.0
20260503024304 29 0 0.0 0.0 0.00 0.00 0.00 83 1011.4
20260503022803 30 0 0.0 0.0 0.00 0.00 0.00 77 1011.5
20260503021301 31 0 0.0 0.0 0.00 0.00 0.00 78 1011.3
20260503015756 32 0 0.0 0.0 0.00 0.00 0.00 71 1011.2
20260503014253 33 0 0.0 0.0 0.00 0.00 0.00 65 1011.0
20260503012751 33 0 0.0 0.0 0.00 0.00 0.00 67 1010.9
20260503011248 34 0 0.0 0.0 0.00 0.00 0.00 64 1010.9
20260503005746 36 0 0.0 0.0 0.00 0.00 0.00 58 1010.7
20260503004243 38 287 1.0 2.0 0.00 0.00 0.00 51 1010.5
20260503002741 39 288 3.0 8.0 0.00 0.00 0.00 47 1010.4
20260503001238 40 291 5.0 13.0 0.00 0.00 0.00 45 1010.2
20260502235735 41 298 7.0 15.0 0.00 0.00 0.00 44 1010.0
20260502234233 41 295 9.0 17.0 0.00 0.00 0.00 44 1010.1
20260502232730 42 296 14.0 28.0 0.00 0.00 0.00 40 1010.0
20260502231228 42 298 12.0 20.0 0.00 0.00 0.00 38 1009.9
20260502225725 42 296 16.0 25.0 0.00 0.00 0.00 38 1010.0
20260502224223 43 299 14.0 28.0 0.00 0.00 0.00 41 1009.9
20260502222720 43 303 14.0 28.0 0.00 0.00 0.00 39 1009.9
20260502221218 43 297 12.0 23.0 0.00 0.00 0.00 43 1009.8
20260502215715 43 295 11.0 23.0 0.00 0.00 0.00 44 1009.9
20260502214213 42 301 11.0 17.0 0.00 0.00 0.00 47 1009.8
20260502212710 42 299 12.0 23.0 0.00 0.00 0.00 49 1009.8
20260502211207 42 298 11.0 23.0 0.00 0.00 0.00 47 1009.8
20260502205705 41 305 10.0 23.0 0.00 0.00 0.00 49 1010.1
20260502204202 41 298 10.0 17.0 0.00 0.00 0.00 50 1010.1